Location: Unspecified
(0.0000°N, 0.0000°E)
Time: 10:31:17
(UTC+00:00)

Envisat - Pass Details

Date: 17 October 2019
Orbit: 764 x 766 km, 98.1° (Epoch: 20 February)

Event Time Altitude Azimuth Distance (km) Brightness Sun altitude
Rises 19:07:29 0° 186° (S) 3,231 6.4 -20.2°
Reaches altitude 10° 19:10:01 10° 196° (SSW) 2,302 5.8 -20.9°
Maximum altitude 19:14:28 32° 258° (WSW) 1,301 4.8 -22.0°
Drops below altitude 10° 19:18:56 10° 320° (NW) 2,293 5.8 -23.1°
Sets 19:21:27 0° 330° (NNW) 3,216 6.5 -23.7°
